Wind_Speed
4 3 3 3 2 0 4 6 2 3 4 3 1 1 3 2 1 3 2 1 1 2 3 2 4 7 3 3 7 6 3 4 6 4 3 4 5 19 19 16 20 20 21 20 18 16 16 16 14 13 13 12 13 13 12 11 12 12 13 14 14 15 17 17 18 19 19 19 18 16 14 14 14 15 16 18 19 20 21 22 22 21 20 20 20 20 20 21 20 20 21 22 23 22 22 22 22
3 3 3 3 5 3 1 4 3 3 5 2 3 2 3 2 1 5 6 5 3 2 3 5 5 5 5 4 4 3 0 1 4 3 1 3 11 18 16 18 21 20 21 19 18 17 16 16 14 13 12 12 12 12 11 11 12 12 13 13 14 14 16 16 17 18 18 18 17 15 13 14 14 15 16 17 19 19 21 21 21 21 20 20 20 20 20 21 20 20 20 21 22 21 21 21 21
3 2 3 3 5 5 2 4 2 1 4 2 4 3 2 1 5 6 7 7 4 4 4 4 4 4 4 3 2 2 1 1 3 2 1 8 12 15 16 19 20 20 21 19 18 17 17 16 14 13 12 12 13 12 11 11 11 11 12 12 13 13 14 15 16 17 17 17 16 14 13 14 14 15 15 16 18 18 20 21 21 20 19 19 19 19 20 20 19 19 19 19 20 20 19 20 20
3 3 3 2 3 4 4 4 2 4 3 3 3 4 3 5 7 6 6 6 4 4 3 2 2 1 1 0 1 1 1 1 3 2 3 10 13 17 19 20 20 20 21 19 18 17 17 16 14 13 12 13 13 12 11 11 11 11 11 12 12 12 13 14 15 16 17 16 15 14 13 13 14 14 15 16 17 18 20 20 20 20 19 19 18 18 18 18 18 18 18 18 19 18 18 19 20
4 5 4 3 3 2 4 3 2 4 4 5 2 5 5 6 7 5 4 3 4 2 1 2 2 1 1 1 1 1 2 1 3 2 6 11 14 20 20 20 20 20 21 19 19 18 17 16 14 13 12 13 13 12 11 11 11 11 11 12 12 12 12 13 14 15 15 15 14 14 12 13 13 14 14 15 17 18 20 20 19 19 19 18 18 18 17 16 16 17 17 18 18 17 19 20 20
5 7 8 7 4 1 3 1 1 2 5 5 3 5 5 6 6 6 1 2 2 1 3 2 2 2 1 0 0 3 2 2 4 4 9 13 15 21 21 21 20 21 21 19 19 19 17 16 14 13 12 13 13 12 12 11 10 11 11 11 11 11 12 13 14 14 14 14 14 13 11 12 13 14 14 16 18 19 19 19 19 19 18 17 17 17 17 15 15 16 16 17 18 18 19 19 20
5 4 6 7 3 2 3 2 4 3 2 4 3 4 5 6 5 6 3 0 0 1 1 1 2 5 1 1 0 2 1 2 4 4 11 14 17 22 21 21 20 21 21 18 19 19 18 16 14 13 12 12 13 12 12 11 10 11 11 10 10 10 11 12 13 13 13 14 16 14 11 12 12 13 14 17 19 19 18 18 18 18 17 17 16 16 16 16 16 16 16 17 17 18 18 19 19
5 1 1 4 2 4 4 2 4 2 1 2 2 4 5 6 5 6 4 2 2 1 1 1 1 4 1 1 1 3 3 3 4 5 14 14 18 22 21 22 21 21 20 19 18 18 18 16 14 13 13 12 12 12 12 11 10 10 10 10 9 10 11 11 11 12 12 14 16 15 13 12 12 13 13 15 16 16 17 18 18 17 16 16 16 16 16 16 16 16 15 16 16 17 18 18 18
6 3 0 3 2 3 3 1 2 2 2 4 3 4 3 5 5 5 4 1 1 1 1 3 1 1 2 2 1 4 2 4 5 9 16 16 19 22 22 22 21 21 20 19 18 18 18 16 15 13 12 12 12 12 12 11 10 11 11 10 9 9 10 10 10 10 11 13 14 13 13 12 11 11 12 13 12 13 16 17 17 17 16 16 15 16 16 16 15 15 15 15 15 15 16 16 16
6 4 1 2 2 2 3 1 2 1 3 4 4 4 2 4 4 3 4 1 1 3 1 2 3 2 2 1 2 1 1 4 7 13 16 17 20 22 23 22 20 20 20 20 19 18 18 16 15 14 13 12 12 11 12 11 11 11 11 10 9 9 10 9 9 9 10 11 11 10 13 14 11 11 10 11 11 12 14 16 17 16 15 15 15 16 16 15 15 15 15 15 15 15 16 16 15
4 4 2 4 3 1 2 2 3 3 5 5 2 3 4 4 5 2 1 1 1 2 2 1 3 3 2 1 2 0 1 4 10 16 16 18 21 21 22 21 20 19 19 20 19 19 18 17 16 15 14 12 12 12 12 12 11 11 10 10 9 9 10 9 9 9 9 10 10 10 12 14 12 11 11 11 11 12 13 16 17 15 14 14 15 15 15 15 15 15 15 15 15 16 16 16 16
2 3 4 4 2 2 3 3 4 5 6 4 1 2 4 5 4 3 3 3 1 1 3 3 3 5 3 3 3 2 1 7 13 16 16 19 21 20 21 21 20 18 19 19 19 19 18 18 16 15 14 13 13 13 12 12 11 11 10 10 9 9 10 9 8 8 8 9 10 10 11 12 11 11 12 12 12 12 14 17 16 14 14 14 15 15 14 15 15 14 15 15 16 16 17 17 17
3 2 5 3 3 2 2 3 3 4 5 3 2 1 5 5 3 6 6 4 3 3 3 4 4 4 3 3 3 4 3 10 14 16 18 20 20 20 20 20 20 19 18 18 19 19 19 19 17 16 15 14 14 13 13 12 12 11 10 10 9 9 9 9 8 8 8 8 9 10 11 11 10 10 11 12 13 13 16 18 16 13 13 14 15 14 14 14 14 15 15 16 17 17 17 17 17
3 3 5 2 1 2 4 2 1 1 3 5 2 2 4 2 4 6 7 5 4 5 1 2 6 4 2 2 3 4 5 12 16 18 20 20 20 20 20 20 20 19 19 19 19 20 20 19 17 16 15 15 15 14 14 13 13 12 11 10 10 9 9 9 8 8 8 8 8 9 10 10 10 11 12 13 14 14 17 19 15 12 12 13 15 14 14 14 14 16 16 17 17 17 17 17 17
4 3 4 4 2 1 3 1 2 4 4 4 2 4 4 2 4 5 6 6 5 4 0 1 3 2 3 3 3 5 9 16 19 21 21 21 20 19 18 19 20 20 19 19 19 20 21 20 18 17 16 16 16 15 15 14 14 13 12 11 11 10 9 9 8 8 8 7 7 8 8 9 9 10 12 13 14 14 17 20 16 11 11 12 14 14 14 14 15 17 16 16 16 16 17 17 17
3 4 5 3 1 1 3 2 3 3 5 5 1 4 5 5 3 4 5 4 2 1 2 1 0 1 3 6 3 4 14 20 20 22 21 20 20 19 18 18 19 20 20 19 20 20 21 21 19 18 17 17 17 16 16 15 15 14 13 12 11 10 10 10 9 9 8 8 7 8 8 8 9 10 11 12 14 15 17 19 16 11 11 13 14 14 14 14 15 16 16 15 15 15 16 17 18
3 4 5 2 2 3 4 4 4 4 5 5 2 4 8 5 2 2 2 4 4 0 2 1 0 1 3 4 3 2 17 22 22 22 20 20 20 19 18 18 19 20 20 20 20 21 21 21 21 20 19 18 18 17 16 16 16 15 14 13 12 11 11 11 10 10 9 9 8 8 8 8 9 9 10 12 14 16 17 18 16 13 12 15 15 14 14 14 15 15 15 14 14 13 14 16 18
4 3 4 2 3 4 6 7 7 5 3 5 5 6 8 5 3 2 1 5 3 1 3 2 2 2 3 5 4 7 21 24 23 23 21 20 19 19 19 20 21 21 21 22 22 21 22 23 22 22 21 20 19 18 18 18 17 16 15 15 14 13 12 12 11 11 10 10 10 9 8 8 8 9 10 12 13 15 17 18 17 14 13 15 16 14 14 14 14 14 14 14 13 13 13 15 17
4 3 3 3 6 5 6 7 6 2 1 5 5 4 5 5 4 3 2 1 2 2 3 4 4 5 2 5 2 16 23 25 25 24 22 21 20 21 21 22 23 23 23 24 24 23 23 24 24 23 22 22 21 20 20 19 19 18 17 17 16 15 14 13 13 12 12 11 11 10 10 9 8 9 10 11 13 15 17 17 16 15 14 16 16 15 14 14 14 13 13 13 13 13 13 15 17
2 4 3 5 6 4 4 6 6 3 3 6 5 3 2 4 3 2 3 2 1 5 5 1 4 8 3 2 8 19 21 23 23 23 22 21 21 22 22 24 26 27 26 25 25 24 24 24 25 25 24 23 22 21 21 21 20 19 19 19 18 18 16 15 15 14 14 13 12 12 11 10 10 9 10 11 13 15 16 17 17 16 15 16 16 15 14 14 13 13 13 13 13 13 14 15 17
2 4 4 5 3 1 2 5 5 4 4 6 5 3 1 4 2 2 6 5 2 6 8 8 9 9 5 3 9 18 19 20 20 21 21 21 22 23 25 26 27 27 26 25 25 26 25 25 25 26 25 25 24 23 23 23 22 21 21 20 20 19 18 18 17 16 15 15 14 13 12 11 11 11 11 12 12 14 15 16 17 16 15 17 17 15 15 14 14 14 14 14 13 13 14 15 17
2 1 4 5 3 1 0 2 3 3 3 5 6 5 4 2 1 3 8 7 6 7 7 10 10 8 9 9 12 14 15 17 18 20 21 22 23 24 25 25 24 24 24 25 26 27 26 26 25 26 26 26 26 25 25 24 24 23 23 22 21 21 20 20 19 18 17 16 15 14 14 13 13 12 12 12 12 13 14 15 16 16 14 16 17 16 15 15 14 14 14 14 14 13 14 16 17
2 1 1 4 3 1 1 1 2 3 6 7 7 5 3 4 1 2 7 8 7 5 4 6 6 7 9 12 14 13 13 15 18 23 25 26 26 27 28 26 25 25 25 25 26 27 27 27 26 26 27 27 27 26 25 26 25 25 24 24 23 22 22 21 21 20 19 18 17 16 15 14 14 14 13 13 13 13 13 14 15 15 14 15 17 16 15 16 15 15 15 15 15 14 15 16 18
4 1 1 2 3 1 1 1 1 4 6 6 4 3 3 4 4 1 5 10 7 3 1 2 6 11 11 12 12 13 15 18 22 27 29 29 30 30 28 26 25 24 24 25 25 27 29 29 28 27 28 28 28 27 27 27 26 26 25 25 24 24 23 23 22 21 20 19 18 17 16 15 15 15 14 14 13 13 13 14 15 15 14 15 17 16 16 16 16 16 16 16 16 16 16 17 19
3 3 2 3 2 2 2 2 4 3 3 2 3 4 1 4 4 1 7 10 7 4 2 4 7 10 10 11 11 11 13 17 21 24 26 27 26 24 24 24 23 23 26 27 26 28 30 30 30 29 29 29 28 28 28 28 27 27 27 26 26 25 25 24 24 23 22 21 20 19 18 17 16 16 15 15 14 14 15 15 15 15 15 16 17 17 16 16 16 17 17 17 17 17 17 18 20
2 4 2 3 1 4 2 3 5 3 1 1 4 2 4 2 1 3 8 7 5 1 6 6 7 7 7 9 11 11 11 15 19 21 23 24 21 21 24 25 25 27 29 28 27 28 30 31 32 31 30 29 29 28 29 29 29 29 29 28 27 27 26 25 25 24 24 23 22 21 20 19 17 17 16 16 16 16 16 16 16 16 16 16 17 17 17 16 16 17 18 18 19 19 19 20 21
3 6 5 4 2 4 2 3 4 2 1 1 5 3 4 2 1 4 4 4 3 3 6 4 7 8 8 7 9 12 12 17 20 19 18 19 21 24 26 27 29 31 30 30 30 29 28 30 32 32 32 30 30 30 29 30 30 30 30 29 28 28 27 26 26 26 26 25 24 23 21 20 18 17 17 17 17 17 17 17 17 17 17 17 17 17 17 17 17 17 18 19 19 20 20 21 22
4 6 5 6 5 3 4 4 3 3 2 1 5 3 4 3 1 6 3 4 1 6 4 3 6 6 7 7 7 9 12 16 17 15 17 21 27 30 30 33 35 33 33 34 33 29 28 29 30 31 32 32 31 31 31 31 31 30 30 30 29 29 28 28 27 27 27 26 25 24 23 22 20 18 17 17 18 18 18 18 18 18 18 18 18 18 18 18 18 18 18 19 19 20 21 22 22
3 4 4 5 7 3 4 2 3 2 2 1 3 2 5 3 6 8 2 4 4 6 3 4 6 6 5 6 6 7 11 13 13 17 23 28 31 32 34 37 35 34 35 34 31 30 30 30 30 30 31 32 33 33 32 32 32 31 31 31 30 30 29 29 29 28 28 27 26 25 24 23 21 20 18 18 19 19 19 19 19 19 19 19 20 19 19 19 19 19 19 20 20 21 22 22 23
1 3 4 1 6 4 4 2 2 1 2 3 1 1 6 8 10 8 4 5 4 2 4 6 5 5 5 5 5 7 10 11 15 23 28 29 30 30 33 36 33 33 34 32 31 32 32 31 30 30 30 32 33 33 33 32 33 33 32 32 31 31 30 30 29 28 28 28 28 27 26 25 23 21 20 19 19 20 20 20 20 20 20 20 21 21 20 20 20 20 20 21 21 22 22 23 24
2 2 2 2 1 4 6 3 0 3 1 2 4 2 7 9 10 7 6 4 1 4 6 6 5 5 5 5 6 7 9 14 20 25 27 28 29 29 32 34 32 33 33 33 35 34 33 32 31 31 32 32 32 33 33 33 33 33 33 33 33 32 31 31 30 29 29 29 29 29 28 27 25 23 22 21 21 21 20 20 20 21 21 21 22 22 21 21 21 21 21 22 23 23 23 24 24
3 2 1 2 3 5 7 3 1 3 1 4 6 2 6 8 9 7 4 3 4 6 7 5 5 6 6 5 6 7 8 13 20 24 27 28 30 31 33 34 33 34 35 36 35 34 34 34 33 33 33 33 34 34 34 34 34 33 33 34 35 34 32 31 30 30 30 29 30 30 30 29 28 26 24 23 23 22 21 20 20 21 22 23 23 23 23 22 22 22 22 23 24 25 25 25 25
4 2 2 1 3 3 5 1 2 1 1 3 3 3 4 4 7 6 2 4 4 2 7 7 6 6 6 5 6 7 8 9 14 22 28 31 33 34 36 36 35 35 36 37 36 35 36 35 35 35 35 35 35 35 34 34 35 34 33 33 33 34 34 33 32 31 31 31 31 31 30 30 30 29 27 25 25 24 23 21 20 21 23 24 24 24 24 23 23 24 24 24 25 26 27 27 27
3 3 2 2 3 2 3 2 3 4 2 1 2 2 6 6 8 8 4 2 3 4 7 8 6 7 6 5 6 6 8 8 10 19 27 31 33 36 37 37 37 36 35 35 35 36 36 36 36 37 37 36 35 35 34 35 35 35 35 34 33 33 34 35 33 31 31 32 33 32 32 29 29 31 30 28 26 26 25 24 23 24 25 26 27 26 25 25 25 25 26 27 26 27 28 29 28
5 3 2 2 2 3 3 2 2 4 2 1 2 3 9 12 11 10 6 3 1 7 7 7 8 7 7 6 7 7 7 9 13 19 24 25 29 32 34 36 35 35 34 34 34 34 34 34 35 36 36 35 35 34 34 35 35 35 35 34 35 35 35 35 34 32 31 33 34 35 33 28 27 31 32 31 29 29 28 28 27 27 27 28 29 28 27 27 27 27 28 28 28 28 29 30 30
9 6 4 4 3 3 5 4 4 1 2 3 5 5 8 11 11 11 8 1 1 8 6 7 8 7 8 7 7 8 8 11 14 17 19 20 24 27 29 32 32 33 32 31 31 32 33 33 33 35 36 35 34 34 34 34 34 33 33 32 32 33 34 35 36 34 33 33 34 34 32 30 31 32 33 34 35 33 31 31 31 30 30 30 30 30 30 30 30 31 30 30 30 29 28 30 31
7 5 4 4 4 3 3 3 5 1 3 3 4 4 9 11 12 13 10 4 4 9 9 9 9 8 9 8 9 9 10 10 10 13 17 18 21 23 24 26 27 28 29 29 30 31 33 34 34 35 35 35 35 35 35 35 34 33 32 32 31 30 29 31 34 35 34 32 32 33 33 35 37 36 35 36 37 36 35 34 34 34 33 33 34 33 33 33 32 32 31 30 31 31 30 30 32
6 6 5 2 3 3 2 1 5 3 1 3 3 5 10 11 12 12 10 8 8 10 10 11 11 10 9 9 11 10 8 8 8 12 17 18 19 21 22 23 24 25 27 29 31 32 33 33 34 35 34 35 36 37 36 36 37 36 34 33 32 31 31 31 32 34 36 33 34 37 39 39 39 37 38 38 38 38 38 37 37 38 38 38 37 35 34 34 34 34 33 32 31 32 31 31 33
5 4 5 2 2 3 3 2 4 4 1 3 4 5 10 11 12 13 11 10 9 8 9 10 9 10 10 10 10 9 8 9 9 11 15 18 20 20 21 22 24 25 26 27 29 30 31 32 34 34 33 34 36 37 37 37 37 37 35 33 32 32 33 33 32 31 32 33 34 36 36 37 37 37 38 37 38 37 37 39 40 41 41 41 39 38 37 37 37 36 36 35 33 31 30 32 37
4 4 5 3 2 1 2 2 4 4 2 1 3 5 9 8 8 11 11 8 7 7 9 9 8 10 13 11 8 7 9 11 11 10 11 15 17 18 20 22 24 24 25 26 27 29 30 32 33 34 34 34 35 36 37 37 35 33 32 32 31 31 32 33 32 31 30 31 32 31 29 31 34 36 37 37 38 36 35 39 42 42 44 43 42 41 40 40 40 39 39 38 36 34 31 33 39
1 3 5 4 3 4 3 2 2 3 3 3 3 5 7 5 5 8 7 5 5 5 6 9 9 10 11 10 9 9 10 10 11 11 10 9 13 16 19 21 22 23 26 27 27 28 30 31 32 33 33 33 33 34 35 35 33 31 30 28 27 26 27 28 29 30 31 31 32 33 33 33 32 33 34 36 38 36 33 37 40 41 43 43 42 42 42 41 41 42 42 41 39 38 35 34 38
2 3 6 6 7 6 2 2 3 4 4 4 4 3 6 5 5 8 6 7 7 5 5 9 10 7 7 8 10 10 9 10 10 11 10 8 11 13 15 17 20 23 25 26 26 26 27 29 29 30 31 32 32 32 32 34 33 32 30 28 26 25 25 27 30 31 32 33 34 35 35 35 36 36 34 33 33 32 33 39 42 42 42 43 43 41 40 39 39 40 41 42 43 43 39 32 35
2 4 5 6 7 7 6 4 4 1 2 3 4 2 5 7 6 8 5 7 10 9 7 10 9 6 6 7 9 8 8 9 8 9 9 9 11 12 13 15 18 21 22 22 23 23 24 25 26 28 29 30 30 30 31 32 33 33 32 32 31 30 29 31 33 33 33 34 35 35 35 35 36 37 36 35 35 35 36 39 42 43 43 43 43 42 40 39 39 40 41 43 45 43 40 35 37
3 3 5 8 7 7 6 6 4 2 3 4 4 4 2 6 6 6 5 6 10 10 10 11 8 7 7 7 8 8 8 7 6 7 8 9 11 12 14 15 15 17 18 18 19 21 22 23 24 25 26 27 28 28 29 31 32 33 33 33 33 33 34 32 31 31 32 32 33 34 35 36 35 34 34 34 35 36 37 38 39 40 42 43 44 45 44 43 42 42 42 42 43 41 41 40 39
3 3 6 6 7 7 5 6 4 1 1 4 5 2 1 6 7 5 5 4 8 10 12 12 9 9 9 8 8 8 8 7 6 7 7 7 10 11 12 11 10 12 13 14 16 17 19 21 21 22 23 25 26 27 28 29 31 32 33 33 33 34 33 31 28 27 28 29 31 32 33 35 36 36 37 36 34 33 33 36 38 39 41 42 44 45 45 45 43 43 44 43 43 44 45 43 38
4 6 7 6 6 6 5 5 4 3 2 4 5 0 1 6 7 5 2 3 7 9 9 9 8 9 8 8 8 7 6 5 5 7 7 8 9 7 5 5 6 7 9 10 11 13 16 18 19 20 21 22 24 25 26 27 29 31 32 33 33 33 31 29 27 25 25 26 28 30 31 33 35 36 38 38 37 35 33 32 34 35 37 38 40 41 42 42 42 42 44 44 45 46 47 45 41
7 6 7 7 6 5 4 3 4 3 2 6 6 2 0 3 7 5 4 5 6 5 6 7 8 8 7 7 7 6 6 5 5 5 5 6 5 3 2 4 5 6 8 8 9 11 14 16 17 18 19 20 21 23 24 25 27 29 31 32 32 32 31 29 29 28 27 27 28 30 31 32 34 35 36 37 37 38 36 34 32 31 33 36 39 41 42 43 43 44 43 43 45 47 47 47 45
6 4 5 5 4 5 4 4 4 2 5 6 4 2 1 4 6 5 5 6 6 5 5 7 8 8 8 7 6 6 6 5 5 4 3 1 2 3 5 6 6 7 9 9 9 11 12 14 15 16 17 18 19 21 22 23 25 27 29 31 31 32 31 30 30 30 30 29 30 31 31 31 32 33 34 35 36 36 37 37 36 35 34 36 39 41 42 44 44 44 44 44 46 47 48 46 46
5 5 6 5 2 3 2 3 1 3 5 4 2 1 2 6 8 8 11 11 7 7 7 7 8 8 8 8 7 6 6 5 5 4 4 2 1 2 5 7 7 8 9 9 9 10 11 12 13 15 16 17 18 19 20 22 24 25 27 28 30 30 31 31 31 32 31 31 31 31 31 32 32 32 32 34 34 34 35 37 38 39 37 36 36 38 41 41 42 41 41 44 45 47 48 47 46
4 6 5 5 3 2 2 4 2 3 4 3 3 2 3 5 5 9 15 13 5 4 7 8 7 8 8 8 8 8 7 6 4 4 4 3 2 1 3 5 7 7 8 8 8 9 10 11 13 14 15 15 16 17 19 20 22 23 24 26 27 28 30 31 32 32 32 32 32 32 32 32 32 33 33 33 32 32 33 35 36 39 40 39 35 34 36 38 40 41 41 42 45 47 48 48 47
2 3 5 6 5 5 4 4 3 4 3 3 3 2 3 3 3 6 11 9 6 5 7 6 7 8 7 7 8 8 8 6 5 4 4 4 3 2 1 2 5 6 6 7 7 9 10 11 12 13 13 13 15 16 17 19 20 21 22 24 25 27 28 29 31 32 32 32 32 32 33 33 33 34 33 32 31 30 31 32 34 36 39 40 37 34 33 33 36 39 42 43 44 46 46 46 48
2 2 5 3 4 5 3 3 5 3 1 2 2 3 5 4 6 8 7 7 7 6 6 5 7 7 5 6 7 6 6 6 5 4 4 4 4 3 2 0 3 5 5 6 7 8 9 10 11 11 11 12 13 14 16 17 18 19 20 22 23 25 26 28 30 31 31 32 32 33 33 33 33 33 32 31 30 30 30 30 32 33 35 38 39 38 36 33 33 36 40 43 45 45 44 45 46
2 2 3 5 4 8 6 2 1 3 1 3 1 4 6 4 7 9 6 7 9 6 6 5 6 6 5 6 6 6 6 6 6 5 4 5 4 3 2 1 2 3 4 4 5 6 7 8 9 10 10 11 12 13 14 15 16 18 19 20 22 23 25 27 28 29 30 31 31 32 33 34 33 33 32 31 30 30 30 30 30 31 32 34 36 38 38 36 34 35 39 42 44 45 44 45 46
5 3 5 4 3 5 5 2 3 4 2 4 1 5 5 2 4 7 5 4 8 9 7 5 6 5 4 4 5 7 7 6 7 6 5 5 6 6 4 2 1 1 1 2 2 4 6 7 8 9 9 10 10 11 12 13 14 16 17 18 20 22 24 26 27 28 29 30 31 32 33 33 33 33 32 31 31 31 30 30 30 31 31 32 33 34 36 35 33 36 40 42 44 43 43 44 45
4 4 3 4 3 2 2 2 2 1 2 4 4 4 4 4 6 6 4 5 7 10 8 6 7 6 4 3 5 7 6 6 6 5 4 5 6 7 5 2 2 3 2 2 2 4 5 7 8 9 9 9 9 10 11 12 13 14 15 16 18 20 22 24 25 26 28 29 31 31 32 33 33 32 32 32 32 32 31 31 31 31 31 31 32 33 33 33 32 34 39 41 42 42 41 42 43
3 2 2 3 3 4 2 2 4 3 3 3 4 4 3 7 6 5 8 9 8 9 8 7 8 4 1 2 5 7 6 5 5 5 4 5 7 7 5 1 3 3 3 3 3 4 5 6 8 9 10 10 11 11 11 11 12 12 14 16 18 19 21 22 24 25 27 29 30 30 32 33 32 32 32 32 32 32 32 31 31 31 32 32 32 32 33 32 31 33 37 39 40 41 42 43 44
2 3 3 2 2 2 2 0 2 4 4 3 2 4 5 6 4 7 10 8 8 8 6 8 7 1 2 5 6 6 6 6 6 5 5 5 7 5 1 3 4 3 1 2 4 5 5 7 8 8 10 11 12 12 12 11 11 12 14 16 17 19 20 22 23 25 27 28 29 30 31 31 32 32 32 31 32 32 32 31 31 31 32 32 33 32 32 31 31 33 36 38 39 39 41 42 43
6 5 6 6 4 4 3 3 1 3 3 4 3 4 8 6 4 7 7 5 7 6 4 7 8 3 4 6 7 7 6 5 5 5 5 6 5 2 6 6 5 3 0 2 4 6 7 8 9 9 11 13 13 13 13 13 12 13 15 16 17 19 21 22 24 25 27 28 28 29 29 30 31 32 32 32 32 32 32 31 31 32 33 33 33 33 32 31 31 33 35 37 38 39 40 41 41
Wind_Direction
355 29 33 39 11 79 25 49 98 325 75 75 314 172 235 210 172 163 149 188 137 238 199 122 133 138 119 160 178 179 161 165 167 137 195 266 145 155 156 152 154 155 151 146 144 145 149 148 144 146 149 147 137 126 121 118 112 106 98 92 88 86 86 88 91 93 93 92 89 91 94 94 93 93 92 91 87 89 95 97 97 94 89 86 85 86 85 85 85 83 80 83 86 86 85 84 82
20 46 53 71 29 45 323 60 98 333 57 90 265 179 251 321 155 181 177 197 199 202 140 114 107 99 58 64 117 125 111 252 178 173 218 131 140 154 153 155 159 157 152 148 148 149 150 149 147 148 149 149 139 130 125 121 116 108 102 94 89 88 88 89 93 95 95 92 89 91 94 95 96 94 93 94 90 90 96 99 98 94 89 87 87 86 87 87 86 85 83 85 87 88 88 87 86
41 71 65 80 37 47 73 43 84 55 82 175 259 246 243 143 196 201 198 215 191 138 106 110 86 76 50 27 69 118 192 269 183 212 116 140 149 156 154 159 162 160 155 151 153 153 152 151 151 151 149 152 145 136 131 124 120 115 108 100 94 91 90 92 95 97 96 93 93 94 97 98 98 96 95 96 92 92 98 100 99 95 91 89 88 88 88 87 88 88 87 87 87 87 88 90 93
60 78 49 70 50 37 61 42 119 122 132 200 256 260 219 182 201 216 225 230 184 115 69 110 67 76 81 249 205 107 210 253 194 198 143 161 161 157 156 162 165 162 159 157 158 156 154 155 154 153 152 154 150 142 137 130 125 122 115 105 99 95 94 95 98 99 96 94 95 97 98 100 100 98 98 97 93 94 100 101 99 96 93 91 90 90 89 90 92 92 92 91 88 89 92 95 96
76 74 50 81 82 44 89 72 105 116 193 186 184 254 232 200 188 198 237 244 208 159 138 123 84 237 88 159 149 150 224 192 196 196 160 168 163 159 158 164 166 164 164 162 162 160 158 157 157 157 156 155 153 148 143 136 129 126 120 110 102 99 99 99 101 101 98 97 96 97 101 104 102 100 101 98 95 97 101 102 100 98 95 92 92 91 90 93 95 94 94 93 93 98 98 96 96
95 83 58 74 87 110 120 110 161 186 221 167 151 246 227 203 184 169 180 296 249 199 179 149 129 171 64 327 206 179 203 116 171 195 171 168 165 163 162 166 168 167 169 167 165 163 162 161 160 161 160 158 156 152 146 140 132 129 123 114 109 105 102 102 104 105 105 104 99 100 107 107 104 103 101 99 98 100 103 103 102 99 96 94 94 94 92 91 92 93 94 93 95 101 101 101 102
111 102 44 69 65 35 108 164 201 219 234 165 157 236 213 195 181 144 132 181 161 24 152 193 131 119 92 308 285 198 302 135 158 187 179 168 166 166 165 168 169 170 172 170 168 166 166 166 164 164 164 162 159 154 150 145 136 132 126 119 116 110 106 106 108 109 112 113 109 105 108 107 102 102 99 101 102 103 105 105 104 101 99 98 97 97 97 94 92 92 94 95 96 99 102 105 106
88 118 15 88 57 28 86 139 208 205 251 236 227 235 213 178 161 136 156 188 178 280 45 190 116 96 220 36 126 247 341 169 167 181 180 169 167 168 168 171 172 173 174 173 171 169 170 169 168 170 168 166 163 157 155 152 144 136 132 128 123 116 111 111 113 113 113 121 122 113 110 108 104 105 103 106 106 106 109 110 107 104 102 101 100 100 100 99 98 96 95 97 97 101 105 106 108
57 47 54 84 89 38 40 19 231 229 272 280 272 244 213 155 140 127 160 253 235 178 109 201 166 74 228 57 227 276 3 180 181 174 178 173 170 170 171 173 175 175 176 177 176 175 175 174 174 175 172 170 166 162 161 159 152 143 140 139 132 125 118 115 118 117 114 122 131 122 113 113 111 111 109 109 109 109 114 114 110 107 104 102 103 103 103 102 101 101 100 101 101 104 108 109 112
39 30 127 71 89 44 351 295 253 254 266 268 263 238 189 150 127 112 149 188 235 138 186 204 88 76 161 127 259 313 59 192 174 169 178 178 172 171 173 175 178 178 178 179 179 181 181 178 179 181 177 173 170 168 168 166 161 151 148 148 141 133 125 122 123 122 119 120 130 127 118 119 118 116 112 111 111 111 117 118 114 110 106 104 105 105 105 104 102 102 102 103 105 107 108 108 111
35 358 96 74 70 82 223 228 286 280 284 296 292 239 187 150 114 95 107 140 261 119 171 151 101 134 108 314 252 311 193 194 173 172 180 180 176 174 175 177 181 182 181 181 182 185 184 180 183 188 182 175 174 175 175 173 170 161 156 153 147 140 131 129 130 128 125 122 126 126 124 125 126 126 123 120 116 115 121 123 119 116 110 107 107 107 107 107 106 105 106 108 110 110 110 112 112
78 342 64 82 130 202 211 183 288 295 312 328 337 270 165 126 113 175 174 157 194 150 205 192 161 141 88 314 263 313 227 186 179 177 180 179 178 177 178 181 183 185 186 185 185 186 185 181 184 193 187 179 179 181 181 178 177 171 165 158 153 147 138 137 137 135 133 128 127 127 129 131 134 138 134 130 124 122 127 125 124 122 115 113 111 111 112 112 112 111 112 114 114 115 117 118 115
116 130 91 98 158 161 165 156 288 330 331 284 213 261 133 128 187 199 167 148 149 148 232 211 164 115 112 254 287 327 234 186 179 178 178 174 176 178 182 186 186 189 189 189 190 188 187 185 187 194 191 184 185 185 184 184 183 179 172 166 162 154 145 145 145 142 142 136 133 131 131 132 136 140 137 133 128 128 131 127 128 129 123 122 116 115 118 119 118 117 117 118 119 122 123 122 120
136 145 114 112 78 121 150 147 284 138 269 261 219 167 145 165 207 187 149 145 194 178 239 197 155 121 139 239 311 312 207 183 176 176 176 172 177 179 185 189 189 192 191 192 193 192 191 189 191 195 193 189 191 190 187 189 188 185 180 176 171 162 152 152 154 152 151 145 139 134 131 133 136 140 137 134 134 136 135 129 131 139 135 129 121 119 125 124 123 122 123 124 126 128 127 125 124
135 127 93 103 49 89 168 170 129 145 237 236 169 150 162 243 150 161 169 159 216 218 96 123 150 169 180 164 248 254 184 175 173 175 176 175 181 183 188 191 192 194 193 196 196 196 195 193 194 196 195 192 195 195 192 193 193 191 188 185 179 170 162 160 163 162 160 155 147 140 136 136 137 143 143 141 144 143 138 134 137 147 147 141 128 125 130 126 128 131 132 130 129 130 129 129 128
122 111 73 87 111 180 181 164 112 124 250 220 180 130 154 252 151 166 223 149 169 302 47 184 95 91 172 156 221 237 169 170 171 173 177 177 183 187 193 195 196 197 196 199 199 200 199 196 197 197 197 196 197 198 195 195 197 197 194 194 187 178 173 170 171 170 168 164 157 151 145 143 141 146 148 149 150 146 144 140 142 153 154 150 135 130 135 130 133 138 138 135 133 132 132 133 133
79 85 73 79 159 202 188 172 163 165 243 237 254 158 156 248 248 195 260 86 120 64 3 250 279 98 185 191 299 194 163 167 168 170 174 176 183 187 192 197 198 199 200 202 202 203 202 200 200 200 199 198 199 200 197 196 200 200 197 197 193 187 184 180 179 176 175 172 167 162 156 153 147 148 151 152 152 151 149 143 148 162 158 153 142 135 139 136 141 143 141 139 137 137 136 138 137
60 82 101 151 180 203 185 179 192 170 209 212 212 182 166 211 221 190 66 47 55 51 325 321 313 264 231 278 303 162 162 165 167 168 170 174 182 186 189 197 198 200 202 204 204 205 206 204 204 203 202 200 200 202 199 199 201 202 200 199 196 194 192 190 187 183 184 180 176 172 168 164 156 153 155 155 156 156 153 148 157 169 163 158 148 141 145 146 147 146 144 144 143 143 144 144 143
86 108 109 207 200 206 194 175 185 174 178 181 194 184 179 207 173 151 186 345 33 140 281 340 326 265 270 319 169 158 162 165 169 170 171 175 183 188 190 195 200 205 205 206 206 207 209 208 208 206 205 203 202 203 202 201 203 203 202 200 198 197 196 196 193 190 190 187 184 179 176 173 166 161 159 161 161 161 157 156 164 172 169 163 155 151 153 153 153 151 150 150 148 150 152 150 149
143 116 111 234 212 219 218 179 187 206 157 152 184 175 178 237 168 162 182 146 110 194 227 248 264 250 250 319 149 155 163 166 172 174 177 182 186 191 193 194 200 206 208 210 209 210 212 211 211 210 208 207 205 205 204 204 204 204 205 202 200 199 199 200 197 196 195 192 191 187 184 180 176 171 166 168 169 169 166 166 172 176 173 167 164 162 161 160 159 157 156 155 155 156 158 157 156
142 119 166 224 197 188 214 193 201 206 169 152 161 135 168 244 186 153 147 133 256 241 224 201 212 214 187 199 162 159 165 169 178 183 185 190 192 196 199 200 203 207 210 212 213 215 215 214 214 212 210 210 209 207 206 206 205 204 206 206 203 202 201 201 200 200 199 197 196 192 190 187 183 180 175 174 176 178 177 176 179 182 177 169 170 170 166 166 164 162 162 161 160 161 162 163 164
111 133 183 187 155 113 181 202 200 172 150 135 137 156 186 188 137 151 151 167 233 234 224 212 207 186 164 170 166 164 170 175 184 190 194 197 198 201 204 206 206 208 210 212 214 217 217 218 218 215 212 212 212 211 209 208 206 204 205 208 207 205 204 203 203 204 203 201 200 198 196 192 189 186 182 181 182 186 186 185 185 188 183 172 174 176 171 171 170 168 167 166 165 166 165 165 168
126 258 205 186 182 109 20 316 233 158 136 150 163 179 146 116 195 177 171 206 223 208 226 230 199 162 155 155 159 167 178 184 191 196 198 200 203 204 206 207 207 208 210 214 216 217 219 220 221 220 215 213 214 214 212 209 208 206 206 209 210 209 206 206 206 205 206 205 204 204 202 199 195 191 189 188 189 191 192 192 191 192 188 178 177 181 178 175 176 173 171 172 170 170 168 166 167
96 165 248 170 171 141 346 6 193 158 152 185 186 136 121 162 193 108 216 235 236 221 288 249 165 145 146 151 166 177 183 191 197 201 202 203 206 207 208 209 209 210 212 215 217 217 219 220 222 222 218 215 214 213 214 212 210 209 209 210 213 213 210 208 209 208 208 208 208 208 207 206 204 200 196 195 195 196 197 197 197 195 192 184 182 186 185 180 180 179 177 176 174 173 171 169 168
81 161 205 125 130 296 316 66 80 111 144 192 131 119 225 205 169 122 244 247 262 261 73 94 132 136 153 164 179 185 189 198 203 207 209 211 212 213 214 213 212 213 215 217 217 218 220 222 222 223 221 217 214 213 214 214 211 211 212 212 213 216 216 212 211 211 210 210 210 211 211 211 210 208 204 202 202 200 200 201 201 198 195 191 187 189 191 187 184 182 181 179 178 177 174 172 171
172 142 156 112 62 320 333 92 50 56 114 65 127 121 309 234 178 277 256 259 282 294 87 106 130 144 178 179 185 188 192 202 205 209 212 215 216 218 219 216 215 215 218 218 217 218 220 222 223 224 223 220 217 213 214 215 212 212 214 215 214 217 219 218 215 213 213 213 213 213 214 215 215 215 211 209 208 205 203 203 203 201 198 196 194 193 194 194 190 187 186 184 181 180 178 176 174
140 118 112 80 27 329 28 99 15 7 107 52 147 177 300 302 316 262 262 313 296 121 95 123 148 170 192 190 199 197 201 205 204 205 209 214 216 219 219 217 218 217 218 219 218 218 218 221 222 223 224 224 220 215 214 215 213 213 216 216 215 218 219 220 219 217 216 216 216 216 215 217 218 219 218 216 213 210 208 205 205 204 202 200 199 199 197 197 196 192 190 188 186 184 181 178 177
109 124 106 20 3 3 30 78 5 357 101 68 127 140 306 355 311 232 232 346 17 138 133 165 172 198 199 197 208 206 217 216 206 202 204 209 213 216 217 217 218 217 219 220 218 217 217 219 220 222 224 225 224 218 216 217 216 215 217 218 217 218 220 221 223 220 219 218 218 219 218 217 219 221 221 221 217 213 212 209 207 206 205 203 202 203 200 198 198 194 192 191 189 188 185 181 179
114 120 117 347 4 19 358 39 323 351 111 312 109 75 300 239 234 240 258 358 58 122 178 221 206 221 215 211 217 214 226 221 211 214 215 215 215 215 218 220 219 218 221 221 220 218 218 219 219 220 222 224 225 222 219 219 221 219 218 221 220 220 220 222 224 222 222 221 220 221 221 220 221 224 225 223 221 218 216 213 211 209 208 206 203 203 203 200 198 195 193 192 191 190 188 183 180
139 67 105 24 12 349 319 360 314 108 116 314 127 225 276 248 247 257 303 337 23 93 225 235 232 235 229 227 228 230 231 218 215 221 222 222 221 221 223 225 222 222 224 222 222 221 220 220 219 220 220 221 223 223 222 221 222 222 221 223 224 223 222 223 226 225 223 224 224 223 223 223 223 225 227 226 222 219 219 216 215 213 210 209 206 205 205 202 200 198 195 192 191 191 189 186 183
90 61 66 64 105 260 301 323 191 137 161 3 111 196 271 264 267 272 302 320 240 253 254 238 244 250 241 235 233 241 237 225 226 228 228 228 227 227 228 229 227 226 227 225 225 224 222 221 220 220 220 220 221 222 222 222 222 223 224 225 225 225 224 223 225 226 225 225 226 225 224 225 225 226 227 227 224 220 220 220 219 218 214 211 209 207 206 204 202 200 198 194 190 191 191 187 185
41 103 312 353 163 254 310 318 155 145 209 43 102 210 272 268 272 275 320 21 158 231 267 271 263 256 243 239 235 242 248 238 237 238 236 234 232 231 232 232 230 229 229 229 229 227 225 223 221 221 221 220 221 222 223 224 224 224 224 226 226 227 227 227 226 226 227 227 227 227 227 226 226 228 228 227 226 222 221 223 225 223 220 215 212 210 208 206 205 202 201 200 195 190 190 187 185
1 102 187 255 165 264 316 333 337 47 128 17 82 217 268 282 278 280 335 61 91 250 283 288 276 267 250 237 236 240 253 251 243 241 239 236 235 235 234 234 233 232 232 231 230 229 228 226 223 223 222 220 221 223 224 225 225 225 225 226 225 226 228 230 229 227 228 228 228 227 228 228 228 228 228 228 228 226 223 226 230 229 225 220 215 212 210 209 208 205 202 203 202 196 191 188 185
308 46 121 226 181 204 289 286 330 27 88 296 23 227 250 274 283 287 286 95 40 315 284 286 282 278 266 248 249 243 246 252 245 240 239 238 238 238 238 238 237 235 235 234 232 232 231 229 226 225 224 222 220 221 222 224 225 227 228 228 229 229 228 228 227 228 231 230 229 228 226 227 230 230 227 227 229 230 229 228 230 230 227 222 217 214 212 211 211 210 206 202 203 201 195 191 188
194 184 149 218 209 206 255 253 284 17 64 231 317 270 263 274 279 286 278 166 267 279 272 284 279 272 269 257 252 247 244 248 246 244 243 242 242 242 242 241 239 237 236 235 234 233 233 231 229 228 225 223 220 220 221 222 223 225 225 225 227 228 228 226 225 229 232 231 231 229 225 227 235 234 230 229 228 229 230 229 231 229 225 221 217 214 212 211 211 211 210 203 200 201 200 196 191
175 178 146 153 175 232 244 247 276 343 103 243 252 253 270 277 279 287 284 154 249 281 282 280 270 266 265 256 249 247 244 245 249 252 252 249 247 247 246 244 241 239 237 236 234 232 231 230 229 228 227 224 220 218 219 219 219 219 219 218 219 221 222 222 225 230 229 227 228 229 230 235 239 235 230 230 227 226 227 229 230 228 225 223 219 216 215 215 214 210 208 205 198 195 197 196 193
136 132 119 148 177 244 255 263 303 351 135 259 270 273 276 273 276 278 280 305 303 280 278 271 264 260 258 253 253 249 245 252 262 264 258 252 252 251 249 248 244 240 238 236 233 231 230 229 227 227 227 223 218 216 216 217 216 216 216 216 218 220 221 219 221 227 229 232 236 236 238 238 236 231 229 229 227 225 226 227 228 227 223 222 222 223 223 220 216 210 206 204 202 196 193 194 192
97 136 143 166 199 229 261 260 316 353 148 267 359 328 277 267 274 274 276 288 273 255 256 261 260 259 259 255 255 253 258 272 274 265 259 252 250 248 246 245 241 237 237 234 233 233 230 226 225 226 226 221 219 218 215 216 217 218 218 219 220 223 227 225 221 223 228 238 243 238 235 232 230 228 227 228 227 225 226 225 226 226 224 221 221 222 222 219 214 210 205 202 201 201 198 194 191
88 115 135 170 226 238 278 300 330 6 105 263 352 336 279 265 268 268 263 259 253 244 241 249 257 262 262 255 254 260 271 275 266 259 259 253 249 246 242 240 238 238 238 236 234 233 228 223 224 225 224 222 221 220 218 219 220 220 221 222 223 224 227 230 229 229 230 235 238 231 227 227 228 229 228 228 226 225 228 228 227 227 225 223 219 216 216 215 212 209 208 205 200 199 202 200 196
93 110 135 188 250 188 222 291 331 9 70 261 325 312 283 279 281 274 265 258 263 263 255 253 247 248 256 261 266 265 260 265 266 262 259 256 252 246 239 237 237 236 235 234 232 229 226 224 224 223 223 224 223 222 221 222 221 220 221 223 225 225 227 230 233 235 234 233 233 232 232 231 228 228 230 232 230 228 229 229 227 226 225 223 220 216 213 213 213 210 210 208 203 197 199 202 201
82 145 145 166 198 177 191 284 328 4 28 32 13 322 294 307 313 284 286 313 293 281 287 277 253 243 256 272 274 258 251 257 263 265 261 253 249 244 240 237 235 233 231 232 231 228 226 225 224 223 223 224 223 223 222 220 219 218 219 220 222 224 226 228 229 231 232 232 234 238 243 244 237 231 230 231 230 230 234 232 228 227 225 221 218 215 214 214 213 212 211 208 206 204 202 203 202
268 215 178 173 172 163 147 34 53 33 356 360 25 335 289 315 311 273 299 339 307 301 306 277 265 257 252 260 263 254 251 249 247 258 265 259 254 250 245 236 230 230 232 233 232 230 228 227 224 222 222 224 224 223 221 219 218 217 216 214 215 217 220 223 225 227 229 231 234 237 240 243 244 242 239 237 234 238 245 240 234 230 227 223 220 216 216 215 213 213 213 211 211 211 206 202 203
220 236 175 149 132 129 129 107 86 86 267 327 47 143 265 311 292 265 310 336 306 304 295 275 276 277 248 242 254 250 248 248 245 255 263 266 263 257 249 237 227 229 232 232 231 229 228 227 225 223 223 224 224 223 221 219 218 218 218 217 217 218 220 225 228 230 231 233 235 237 238 239 240 239 238 240 244 246 245 237 232 230 228 227 224 221 220 221 220 219 219 218 216 213 207 204 207
213 232 133 126 123 133 139 109 96 191 241 331 18 115 247 298 267 268 330 331 307 305 292 285 292 292 275 258 255 250 247 249 247 253 258 260 259 255 250 243 234 232 232 230 228 226 225 225 225 224 223 224 224 223 222 221 220 220 221 221 222 223 226 230 232 234 235 236 237 238 239 240 240 241 240 241 242 242 241 237 234 233 231 232 230 228 227 227 226 224 221 220 217 212 210 211 211
234 197 122 123 124 126 119 95 90 37 354 312 318 92 196 273 272 304 349 315 291 285 274 279 293 297 294 287 276 266 259 248 237 244 251 252 257 260 256 246 237 232 227 226 226 223 221 221 221 222 222 223 223 224 223 224 224 224 224 224 225 228 231 233 236 237 237 237 238 238 239 239 240 243 245 246 245 242 240 236 231 229 229 228 228 227 227 227 228 227 224 221 217 216 216 217 217
182 142 100 79 77 79 79 89 100 53 16 250 262 295 190 265 280 297 329 256 255 262 267 272 279 285 290 296 295 289 283 269 247 245 249 256 265 272 258 229 221 217 214 215 215 214 213 214 216 217 220 221 223 224 224 226 226 226 227 227 228 231 233 235 236 238 238 237 237 238 239 239 240 241 241 243 245 245 245 239 232 231 231 231 230 229 228 228 228 227 226 224 221 219 219 219 221
139 117 78 62 39 35 49 57 81 65 306 253 254 287 181 267 277 254 220 221 217 236 284 289 292 302 301 302 310 310 308 300 282 270 264 266 265 246 186 176 178 181 188 193 197 201 204 207 211 214 218 220 222 224 225 227 227 227 229 231 233 235 236 237 237 238 239 238 239 239 240 241 241 242 242 241 242 244 247 249 247 246 245 243 241 239 237 237 235 231 229 227 224 222 222 221 222
107 96 92 84 11 11 26 1 41 106 257 260 268 293 166 229 260 252 245 254 233 216 256 278 291 307 308 308 318 319 314 307 309 318 320 331 139 164 168 160 155 163 173 179 185 192 195 201 207 210 214 218 220 223 225 227 228 229 232 233 236 238 239 240 241 242 242 241 242 244 244 244 243 243 244 244 244 245 247 249 252 253 251 246 244 243 242 241 238 234 229 227 225 225 225 224 222
73 103 106 98 15 14 4 313 335 214 246 268 282 245 209 237 250 260 267 269 254 220 228 246 262 283 297 303 311 316 314 308 312 324 328 348 121 166 167 158 157 159 165 174 179 185 191 197 204 209 214 217 220 222 225 228 229 231 234 235 238 241 242 243 244 246 247 247 248 248 247 247 247 247 246 246 247 248 247 248 249 251 251 251 248 247 246 242 237 232 228 226 226 226 226 225 224
125 138 131 130 122 99 241 263 284 258 260 289 288 248 259 276 265 249 252 260 263 226 229 234 243 263 280 293 302 303 300 294 288 297 301 289 268 213 161 159 160 156 161 172 178 185 192 198 205 211 215 218 221 224 227 229 232 234 236 239 241 243 244 246 248 249 250 251 252 252 252 253 253 253 253 253 254 253 252 250 249 248 250 253 253 251 248 244 239 235 232 230 230 229 228 226 226
171 161 131 146 156 153 201 214 203 237 276 310 298 251 202 228 270 238 235 258 289 267 252 248 248 258 272 289 295 292 293 292 282 282 281 281 297 332 46 155 158 159 165 174 184 193 198 203 208 212 217 220 224 228 230 233 236 238 240 242 243 245 247 250 252 253 254 255 255 256 257 257 258 259 260 261 261 258 256 254 252 250 249 251 253 254 252 249 245 241 237 236 235 233 231 228 228
249 122 103 159 185 140 137 177 172 168 336 311 265 238 215 214 274 274 259 277 287 269 275 276 260 272 303 302 293 293 296 294 292 300 304 308 329 354 347 200 161 163 177 187 196 203 207 212 215 217 221 224 228 232 234 238 241 242 244 245 247 248 250 252 254 255 256 257 258 259 260 261 262 263 264 263 263 260 258 256 254 253 251 251 252 253 255 255 253 248 242 239 237 235 232 231 231
165 125 172 212 170 112 113 196 75 82 235 269 226 252 289 320 289 293 300 285 288 297 302 285 270 291 314 296 291 295 289 283 288 296 299 303 316 334 324 267 192 175 187 201 205 217 226 227 226 226 225 226 230 234 238 242 244 246 248 249 251 252 253 255 257 258 260 261 262 262 263 264 264 264 264 264 264 262 260 258 256 255 254 253 253 253 254 257 260 256 248 241 238 236 234 233 233
124 173 210 193 119 93 110 165 12 43 239 274 283 246 287 321 274 317 355 264 274 287 286 294 297 291 287 282 276 275 280 287 290 292 290 287 293 303 306 283 199 158 199 220 215 232 239 240 240 238 235 233 236 239 242 245 247 250 253 254 256 257 258 260 262 263 264 263 264 264 264 265 265 265 265 265 264 263 261 259 257 257 256 255 254 254 254 257 262 259 251 244 241 237 234 234 234
123 183 180 116 139 165 87 142 166 116 231 278 300 276 266 210 229 303 311 217 238 262 273 300 292 268 273 310 287 277 286 290 284 289 294 292 297 301 298 314 39 40 7 330 266 250 245 247 250 247 248 247 244 244 244 246 250 253 258 260 262 263 264 266 266 267 267 265 266 267 266 266 267 266 265 264 264 263 261 260 258 258 258 256 255 255 254 256 260 258 249 244 241 238 235 235 235
45 95 101 80 129 164 154 153 164 165 193 248 308 324 266 227 211 219 235 227 220 241 264 281 277 261 210 273 278 280 285 283 280 287 294 299 300 291 280 324 44 48 7 336 303 281 267 259 258 254 256 254 248 247 247 248 254 260 265 267 268 270 271 272 272 271 269 269 270 270 269 269 269 267 266 265 265 264 262 261 260 259 259 258 257 255 253 255 258 257 250 244 240 237 236 237 237
100 118 160 176 65 110 162 133 118 138 157 185 273 298 264 249 206 195 222 231 216 220 242 263 280 18 155 233 255 266 274 279 284 300 313 299 281 273 180 84 70 76 5 300 288 284 280 274 274 274 273 267 261 259 258 260 266 271 275 278 279 280 279 278 278 276 274 274 274 273 272 272 271 269 268 266 266 265 264 262 261 261 261 259 259 257 255 255 257 256 251 247 242 238 236 237 237
161 170 184 181 154 124 154 246 234 116 139 166 178 264 267 250 202 201 219 226 222 221 230 263 284 289 237 247 253 254 261 271 281 299 292 266 248 113 88 90 91 93 267 285 288 290 292 292 292 290 282 276 271 269 267 269 273 275 278 284 287 286 285 283 281 280 279 279 278 277 277 275 273 273 271 269 269 268 266 264 262 262 261 261 260 259 258 257 257 256 251 247 244 241 239 238 237
Height
793 792 792 792 792 792 795 797 814 827 829 841 846 842 836 834 836 833 832 831 830 828 828 829 830 831 833 834 834 834 835 838 840 845 844 836 833 835 837 838 840 842 844 845 847 848 850 851 852 853 854 854 855 855 856 856 856 856 856 856 856 856 856 856 855 856 856 856 857 857 858 857 858 858 858 858 858 859 859 860 860 861 861 862 862 862 862 862 861 861 861 861 861 861 861 861 862
792 792 792 792 791 792 802 806 822 836 835 845 848 842 837 835 835 830 830 829 827 828 829 830 830 831 832 833 832 833 835 836 835 836 835 834 835 836 838 839 841 842 844 845 847 849 850 851 852 854 854 855 856 856 856 856 857 856 857 857 857 857 857 857 857 857 857 858 858 859 859 859 859 859 859 860 860 860 861 861 862 862 863 863 863 864 863 863 863 863 863 863 863 863 863 863 863
792 793 792 792 793 795 806 810 826 841 840 845 841 838 837 833 830 827 828 827 828 830 830 830 829 830 832 834 834 834 835 836 836 834 834 835 835 836 838 839 841 843 844 846 847 849 850 852 853 854 855 855 856 856 857 857 857 857 857 858 858 858 858 858 858 859 859 859 860 860 860 860 860 860 861 861 861 862 863 863 864 864 864 865 865 865 865 865 865 865 865 865 865 865 865 865 865
792 792 792 792 797 801 810 819 830 837 840 847 839 832 832 828 826 827 828 827 830 830 829 829 830 832 832 833 834 835 836 836 834 833 834 834 835 836 838 840 841 843 845 846 847 849 850 852 853 854 855 855 856 857 857 857 858 858 858 859 859 859 859 859 859 860 860 861 861 861 861 861 862 862 862 862 863 864 864 865 865 865 865 866 866 866 867 867 867 866 866 866 867 867 867 867 867
792 793 793 792 802 808 817 832 840 835 833 841 834 828 828 825 825 827 828 828 830 830 828 829 830 833 833 833 836 835 834 836 834 832 834 834 836 836 838 840 842 844 845 847 848 849 851 852 853 854 855 856 857 857 858 858 858 858 859 859 859 860 860 860 860 861 861 862 862 863 863 863 863 863 863 864 864 865 866 866 866 867 867 867 868 868 868 868 868 868 868 868 868 868 869 869 869
792 793 793 793 804 810 819 833 837 831 827 831 826 824 824 825 827 826 828 828 828 830 829 829 829 831 832 834 835 834 833 835 833 833 833 834 836 837 839 840 842 844 845 847 848 850 851 852 853 854 856 856 857 857 858 858 859 859 859 860 860 860 860 861 861 862 862 863 864 864 864 864 864 864 864 865 866 866 867 868 868 868 868 868 869 869 870 869 869 869 869 869 870 870 870 871 871
792 794 797 799 809 814 822 830 831 828 828 832 825 821 822 825 829 827 828 828 827 829 829 829 829 829 833 835 834 833 833 833 833 833 834 834 836 837 839 841 842 844 846 847 848 850 851 853 854 855 856 856 857 858 858 859 859 860 860 860 861 861 861 862 862 863 863 864 864 865 865 865 865 865 865 866 867 868 868 869 869 869 869 870 870 871 871 871 871 871 871 871 871 871 872 872 872
791 797 803 807 817 824 830 833 832 832 831 835 830 826 824 824 828 827 828 829 827 828 828 829 829 829 833 836 835 833 832 832 833 833 834 835 836 838 839 841 843 844 846 848 849 850 852 853 854 855 856 857 858 858 859 859 860 860 861 861 861 862 862 862 863 863 864 864 865 865 866 866 866 866 866 867 868 869 869 870 870 870 871 871 871 872 872 872 872 873 873 873 873 873 873 874 874
792 798 806 811 822 830 835 835 834 834 832 832 830 828 827 827 829 826 827 828 828 828 827 829 828 829 833 835 834 833 832 832 833 833 835 835 836 838 840 841 843 844 846 848 849 851 852 853 854 856 857 857 858 859 860 860 861 861 861 862 862 863 863 863 864 864 864 865 865 866 866 867 867 867 868 868 869 870 870 871 871 871 872 872 872 873 873 873 874 874 874 874 874 875 875 875 875
796 801 809 816 825 831 835 835 832 832 831 830 828 826 827 829 828 827 828 827 828 827 828 829 828 830 833 834 834 832 832 832 833 834 835 836 837 838 840 842 844 845 846 848 849 851 852 854 855 856 857 858 859 859 860 861 861 862 862 863 863 863 863 864 864 865 865 865 866 866 867 868 868 869 869 869 870 871 871 872 872 872 873 873 873 874 874 875 875 875 875 876 876 876 876 877 877
801 807 810 819 828 830 831 831 829 830 829 829 826 825 828 829 828 828 828 827 829 827 827 829 827 831 835 835 835 832 832 833 833 833 835 836 838 839 841 842 844 846 847 848 849 851 852 854 855 856 857 858 859 860 860 861 862 862 863 863 864 864 864 865 865 865 866 866 866 867 868 868 869 870 870 870 871 871 872 873 873 873 874 874 875 875 875 876 876 876 877 877 877 877 878 878 878
805 813 812 821 830 831 833 831 829 830 828 826 822 823 828 829 827 826 827 827 827 827 826 826 825 829 834 836 834 831 832 832 833 834 835 836 838 840 841 843 844 846 847 848 849 851 852 854 855 856 858 859 859 860 861 861 862 863 863 864 864 865 865 865 866 866 867 867 867 868 868 869 869 870 870 871 871 872 873 874 874 874 874 875 875 876 876 877 877 877 878 878 878 878 879 879 880
806 815 812 823 837 837 837 835 833 834 829 825 822 825 828 826 825 824 825 826 826 826 825 825 825 826 832 835 832 832 832 832 834 834 835 837 838 840 842 843 845 846 848 849 850 851 852 854 855 856 857 859 859 860 861 862 862 863 864 864 865 865 866 866 867 867 867 868 868 868 869 869 870 870 871 871 872 873 873 874 875 875 875 875 876 877 877 878 878 878 879 879 879 880 880 880 881
804 812 811 827 846 842 837 835 834 835 828 823 823 826 827 825 824 825 825 825 826 825 823 824 825 825 831 834 832 832 831 832 834 834 836 838 839 841 842 843 845 846 848 849 850 851 852 853 855 856 857 858 859 860 861 862 862 863 864 865 865 866 866 867 867 867 868 868 869 869 869 870 870 871 871 872 873 873 874 875 876 875 875 876 877 878 878 879 879 879 880 880 880 881 881 881 882
803 811 814 827 842 840 837 836 835 836 826 821 823 825 825 824 825 826 824 823 824 824 823 824 824 825 829 830 830 829 829 831 833 834 836 838 840 841 842 844 845 846 847 849 850 851 852 853 854 856 857 858 859 860 861 862 863 863 864 865 866 866 867 867 868 868 868 869 869 870 870 870 871 871 872 872 873 874 875 876 876 876 876 877 878 878 879 879 880 880 881 881 881 882 882 882 883
803 808 816 824 835 836 836 838 840 838 826 820 825 825 824 824 826 825 823 821 822 824 825 824 825 826 827 827 827 827 828 831 833 835 837 838 840 841 842 844 844 846 847 848 849 850 852 853 854 855 856 858 859 860 861 862 863 863 864 865 866 866 867 867 868 868 869 869 870 870 870 871 871 872 872 873 874 874 875 876 877 876 877 878 878 879 880 880 880 881 882 882 882 883 883 883 884
802 806 816 823 832 833 831 835 835 830 821 821 826 825 823 823 825 824 822 822 822 824 825 825 827 827 826 826 826 827 828 831 833 835 836 838 840 841 842 843 844 845 846 848 849 850 851 852 853 854 856 857 858 859 860 861 862 863 864 865 866 866 867 868 868 868 869 869 870 870 871 871 872 872 873 873 874 875 876 877 877 877 877 878 879 880 880 880 881 881 882 883 883 884 884 884 885
803 812 820 824 831 826 821 824 824 821 817 819 823 822 822 821 823 822 822 822 823 825 825 826 827 826 826 826 826 827 828 830 832 834 835 837 839 840 841 842 843 844 845 846 848 849 850 851 852 854 855 856 857 859 860 861 862 863 863 864 865 866 867 867 868 868 869 869 870 870 871 871 872 872 873 874 874 875 876 877 877 877 878 878 879 880 880 881 881 882 883 883 884 884 885 885 885
808 818 821 821 823 819 816 816 818 819 815 817 821 823 823 820 821 821 821 824 825 825 825 826 825 825 826 826 825 827 828 830 831 833 834 835 836 838 839 840 842 843 844 845 846 848 849 850 851 853 854 855 857 858 859 860 861 862 863 864 865 865 867 867 868 868 869 869 870 870 871 872 872 873 874 874 875 876 876 877 877 877 878 878 879 879 880 881 882 883 883 884 884 885 885 886 886
810 817 817 816 816 815 817 816 816 818 817 818 820 824 824 820 821 821 821 825 826 825 823 824 824 822 824 826 826 827 829 830 831 833 834 835 835 836 837 838 839 840 842 843 845 846 848 849 850 852 853 854 856 857 858 859 860 861 862 863 864 865 866 867 868 868 869 869 870 870 871 872 872 873 874 875 875 876 877 877 877 877 878 878 879 879 880 881 882 883 884 884 885 885 886 886 887
811 813 812 814 816 815 815 816 817 819 820 819 819 823 823 820 822 821 821 825 826 823 819 819 818 818 822 827 827 827 829 830 831 832 833 834 834 835 835 836 837 839 842 843 844 845 847 848 849 851 852 854 855 856 857 858 859 860 861 862 863 864 865 866 867 868 868 869 870 870 871 872 873 873 874 875 876 876 877 877 877 878 878 879 880 880 881 882 883 883 884 885 885 886 886 887 887
809 813 813 815 818 814 814 820 820 821 822 820 820 821 820 820 821 821 821 821 820 817 814 814 814 816 820 823 825 827 829 829 830 831 831 832 832 833 834 836 837 839 841 842 843 844 845 847 848 850 851 853 854 855 856 857 859 859 860 861 862 864 865 865 866 867 868 869 869 870 871 872 872 873 874 875 875 876 877 877 877 878 878 879 880 881 881 882 883 884 884 885 886 886 887 887 888
808 813 815 817 818 814 817 822 822 823 820 818 819 818 819 820 819 823 821 815 813 813 814 814 814 817 819 821 824 826 827 828 828 828 828 829 830 831 832 834 835 837 839 840 841 843 844 846 847 849 850 851 852 854 855 856 858 859 860 860 861 862 863 864 865 866 867 868 869 869 870 871 872 873 874 875 875 876 876 877 877 878 879 879 880 881 881 882 883 884 885 885 886 887 887 888 888
807 811 813 817 820 817 820 822 822 823 817 817 819 817 819 818 818 825 821 811 812 814 815 815 815 817 819 821 823 823 824 824 824 824 825 826 827 828 830 833 834 836 838 839 840 841 843 844 846 847 848 850 851 853 854 855 857 858 859 860 860 861 862 864 864 865 866 867 868 869 870 871 871 872 873 874 874 875 876 876 877 878 879 879 880 881 882 882 883 884 885 886 886 887 888 888 889
807 810 813 817 820 819 821 822 821 821 819 821 820 817 820 821 822 823 815 809 812 814 815 815 816 818 819 821 822 822 823 823 823 824 825 826 828 830 831 833 834 835 836 837 838 839 841 843 844 846 847 848 850 851 852 854 855 857 858 858 859 860 861 862 863 865 866 866 867 868 869 870 871 871 872 873 874 875 875 876 877 877 878 879 880 881 882 882 883 884 885 886 886 887 888 888 889
808 810 814 815 818 819 820 820 819 820 820 821 818 818 822 824 824 817 809 810 813 814 814 816 817 818 819 819 820 821 821 822 822 823 824 826 828 830 830 831 833 833 833 835 836 837 839 841 842 844 845 847 848 850 851 852 854 855 856 857 858 859 860 861 862 864 865 865 866 867 868 869 870 871 872 872 873 874 875 876 876 877 878 879 880 881 882 883 883 884 885 886 887 887 888 889 889
810 812 814 814 818 820 818 817 819 820 820 820 817 819 821 823 824 814 808 813 814 812 814 816 816 817 819 819 819 819 819 819 820 822 824 826 827 827 827 829 829 829 831 832 833 835 837 839 840 842 844 845 847 848 849 850 852 853 854 855 856 857 859 860 861 862 863 864 866 867 868 869 870 871 871 872 873 874 874 875 876 877 878 879 880 881 882 883 883 884 885 886 886 887 888 889 889
811 811 812 815 817 818 818 816 818 819 819 820 817 818 821 822 821 811 808 814 813 811 812 815 815 816 818 819 819 820 819 818 820 822 822 822 822 822 823 823 823 826 828 828 831 834 836 837 838 840 842 843 845 846 847 849 850 851 852 854 855 856 857 858 859 861 862 863 865 866 867 868 869 870 871 872 872 873 874 875 876 877 878 879 880 881 881 882 883 884 885 886 886 887 888 889 889
812 811 812 816 817 816 819 819 820 818 818 821 819 821 823 820 815 807 809 814 813 812 812 814 815 816 819 819 819 819 818 819 821 820 818 817 817 818 819 818 821 823 824 826 830 832 833 835 837 838 840 841 843 844 846 847 848 850 851 852 853 855 856 857 858 859 861 863 864 865 867 868 869 870 871 871 872 873 874 874 875 876 877 878 879 880 881 882 883 883 884 885 886 887 888 889 889
812 814 814 818 819 819 821 822 821 818 820 822 821 825 821 813 811 808 812 814 811 811 810 812 813 815 818 819 819 818 817 818 818 815 814 815 816 817 817 817 820 821 823 826 827 829 831 833 835 837 838 839 841 842 844 845 846 848 849 850 852 853 855 856 857 858 860 862 863 865 866 867 868 869 870 870 872 872 873 874 875 876 877 878 878 879 880 881 882 883 884 885 886 887 888 888 889
815 817 821 828 827 821 821 824 821 817 822 821 820 827 819 808 808 810 814 814 810 808 807 810 812 814 816 817 818 816 815 815 813 812 813 814 814 815 815 816 819 820 821 823 823 826 828 830 832 834 836 837 839 840 842 843 845 846 847 849 850 851 853 855 856 857 859 860 862 863 864 865 866 868 869 869 871 871 872 873 874 875 876 877 878 879 880 881 882 883 883 884 885 886 887 887 888
822 821 825 837 833 822 821 825 824 819 821 821 821 827 820 809 808 811 816 814 810 807 806 809 811 812 813 814 815 814 813 812 811 811 811 812 812 812 813 813 815 817 818 819 821 824 825 827 829 831 833 835 836 838 840 842 843 844 846 847 848 849 852 853 855 855 857 858 859 861 862 864 865 866 868 868 869 871 871 873 874 875 875 876 877 878 879 880 881 882 883 883 883 884 885 886 887
827 825 825 834 833 826 823 824 827 824 821 821 821 824 818 809 808 812 817 814 811 809 806 808 808 808 810 811 812 812 810 810 809 808 806 807 808 808 809 810 811 813 814 816 818 820 821 824 826 827 829 831 834 835 838 839 841 842 844 845 846 847 849 851 853 854 855 856 857 858 860 861 863 864 866 867 868 869 870 872 873 874 874 875 876 877 878 879 880 881 882 882 882 883 884 885 886
829 831 829 835 836 831 825 821 827 828 823 822 823 825 817 809 807 809 814 814 812 809 806 806 806 806 807 808 809 808 808 806 804 802 801 802 803 804 805 806 808 810 812 813 815 817 818 820 822 824 826 828 831 833 835 837 838 840 842 843 845 846 847 848 850 852 853 854 854 855 857 858 861 862 863 865 866 868 869 870 871 872 873 874 875 876 877 878 879 879 880 880 881 882 882 883 884
824 827 827 832 836 835 829 823 827 828 823 823 825 825 818 810 808 806 809 814 811 808 808 807 807 805 804 806 806 805 805 802 798 796 797 799 800 801 802 803 805 806 808 810 812 814 816 818 820 821 823 825 828 831 833 835 836 838 839 840 842 843 844 846 847 849 850 851 852 852 854 856 858 860 861 863 864 865 867 868 869 870 871 872 873 875 876 877 877 878 878 879 880 881 881 882 883
816 824 824 823 826 830 831 827 830 831 825 824 824 824 820 811 809 806 806 812 812 809 810 807 805 804 802 803 802 801 801 797 794 794 796 797 797 798 799 800 802 803 805 807 809 811 813 814 816 818 820 822 825 828 831 832 834 835 837 838 839 840 841 843 844 846 848 848 849 851 852 854 855 856 858 859 861 862 863 864 866 868 869 870 871 872 873 874 875 876 877 878 879 880 881 881 881
819 825 826 825 824 823 827 829 832 833 826 825 829 828 823 815 811 808 806 810 812 808 805 802 800 800 798 798 797 797 796 793 792 794 793 794 795 795 796 798 799 800 802 804 805 806 808 810 812 813 816 819 822 824 826 828 830 831 833 834 836 838 840 841 841 842 845 847 848 849 850 851 852 853 854 855 857 859 860 861 863 865 865 866 867 868 870 871 873 874 876 877 878 878 878 879 880
822 824 824 828 830 824 827 830 832 834 827 828 836 831 822 816 810 807 807 807 804 801 799 796 796 796 795 794 794 793 792 791 791 791 790 791 792 792 794 795 795 797 797 799 800 801 804 806 808 810 812 815 817 819 822 824 826 827 829 831 833 836 838 839 840 840 841 844 846 847 846 847 849 850 851 852 853 855 857 859 859 861 861 862 863 865 867 868 870 872 873 874 876 877 877 877 878
822 828 826 826 831 829 829 832 833 834 827 825 834 829 817 813 809 804 803 801 797 797 796 794 794 793 792 790 789 791 791 789 789 788 787 788 789 790 791 791 792 793 794 795 797 798 801 803 805 807 809 811 813 815 818 820 822 825 827 829 832 834 835 837 838 839 840 841 843 844 844 845 846 847 848 850 851 852 853 855 856 857 858 858 859 861 863 864 866 869 870 871 873 874 876 876 875
824 827 824 825 833 830 824 827 833 835 833 831 832 827 815 809 806 798 797 801 799 798 796 795 797 793 789 788 788 790 789 786 785 785 785 785 786 787 787 788 789 790 791 792 794 795 797 799 801 803 805 807 810 812 815 818 820 824 826 828 830 832 833 835 837 838 839 840 841 842 843 844 844 844 845 847 848 850 851 852 853 853 853 855 856 857 857 858 860 863 865 868 869 870 871 872 872
827 826 821 822 827 827 826 829 833 834 837 838 830 821 811 805 803 793 793 802 798 795 796 790 791 793 790 790 789 789 788 785 784 781 782 783 783 784 784 785 786 787 788 788 790 791 793 795 797 800 803 805 808 810 813 816 819 822 824 826 829 830 831 832 834 834 836 837 838 840 841 843 844 843 844 844 845 846 848 850 851 851 851 852 853 854 853 854 856 857 859 862 865 866 866 868 870
826 823 819 818 817 822 829 831 830 828 831 840 837 825 811 804 802 792 790 795 788 789 793 783 782 789 790 789 785 785 785 784 784 781 780 781 781 782 782 783 783 783 785 786 787 790 791 794 796 798 801 803 806 809 811 814 816 819 821 823 825 826 827 828 828 830 832 834 835 836 838 840 842 842 843 843 844 844 845 845 846 847 849 850 850 852 852 853 854 856 857 857 860 862 863 866 867
824 823 824 823 820 821 825 825 826 828 831 843 847 834 821 809 797 791 796 797 787 785 785 777 778 785 786 784 781 780 780 778 780 780 779 779 779 780 780 780 781 781 782 784 786 788 790 792 795 797 799 802 804 807 809 812 814 816 818 819 821 822 823 823 824 827 829 831 832 834 836 837 839 839 840 841 842 842 842 841 842 843 845 847 848 849 850 851 852 854 855 855 856 858 860 861 861
821 828 830 824 819 821 825 824 826 834 837 842 845 838 834 823 802 801 809 801 789 784 779 773 775 779 780 780 779 778 777 777 778 778 778 778 777 778 778 778 779 780 781 783 785 786 789 791 793 796 798 800 803 805 807 810 811 813 815 816 818 818 819 820 823 825 827 828 830 831 833 834 836 837 838 838 839 839 839 839 839 840 841 843 844 844 845 846 848 850 852 853 854 857 857 856 856
823 836 836 828 825 826 828 827 830 843 841 835 839 840 839 827 803 806 814 802 792 785 777 775 776 777 776 776 778 777 778 779 779 777 776 777 777 776 776 777 778 779 780 782 783 785 787 790 792 794 797 799 801 804 806 807 809 811 813 814 815 816 818 820 822 823 825 826 827 828 830 831 833 834 835 836 836 836 836 836 836 837 837 838 839 840 841 842 843 845 847 848 850 852 853 854 854
828 841 837 833 836 835 834 833 832 841 841 832 838 842 838 823 797 797 806 799 791 783 777 779 778 778 778 777 777 776 777 778 777 777 776 776 776 775 775 776 777 778 779 781 783 785 787 789 791 793 796 798 800 802 804 806 808 809 811 812 813 815 817 819 821 821 823 824 824 825 827 828 829 830 831 833 834 835 835 835 834 834 835 837 838 838 840 840 840 841 842 843 844 846 848 850 851
830 832 826 827 833 833 836 839 836 839 839 837 847 850 844 829 800 789 795 790 784 781 779 779 777 776 777 777 777 775 775 774 774 775 775 775 775 775 775 776 777 778 779 781 783 785 787 788 791 792 795 797 799 801 802 804 806 808 809 811 812 814 816 817 818 819 820 821 822 822 823 824 825 826 828 829 830 832 833 833 834 833 834 834 835 836 836 837 837 837 839 840 841 842 844 844 846
827 820 820 825 832 836 837 841 841 841 838 842 857 860 851 836 805 786 788 787 787 787 781 777 775 775 775 774 775 776 776 774 773 773 773 775 775 775 776 776 777 778 779 781 783 784 787 788 790 792 794 796 797 799 801 803 805 806 808 809 810 812 814 815 815 816 818 818 819 820 821 821 822 823 825 826 827 829 830 831 832 832 832 831 831 832 832 833 833 834 834 835 836 838 839 840 841
824 819 823 828 839 845 842 846 850 846 843 848 860 858 847 831 804 788 786 780 783 790 786 781 779 777 775 774 775 776 777 775 773 772 772 774 775 775 776 777 778 779 779 781 783 784 786 788 789 791 792 794 796 798 800 801 803 804 806 807 808 810 811 812 813 813 815 816 816 817 818 818 819 820 821 822 823 825 827 828 829 829 828 828 828 828 829 829 831 832 832 831 831 832 834 835 836
822 818 820 825 840 849 846 855 861 850 845 853 861 854 836 817 798 789 784 776 779 787 787 786 784 781 779 779 779 778 777 775 773 773 772 773 775 775 776 777 778 779 779 781 782 784 786 787 789 790 792 794 795 797 799 800 801 803 804 805 806 808 809 810 810 811 812 813 813 814 815 815 816 816 817 818 820 822 823 823 824 825 825 825 826 825 825 826 827 828 829 829 828 827 828 830 831
822 822 820 819 826 831 834 843 841 837 843 854 858 844 818 800 789 785 783 782 786 786 786 789 788 787 787 785 783 778 774 773 772 773 773 773 775 775 775 777 777 779 780 781 782 784 785 787 788 789 791 793 794 796 797 798 800 801 802 804 805 806 807 807 808 808 809 810 811 811 811 812 813 813 814 815 817 818 819 820 820 821 822 822 823 823 823 823 824 824 824 825 825 825 825 826 827
828 830 824 819 815 817 837 854 849 846 848 848 848 832 810 797 787 783 785 785 785 783 783 784 781 783 786 781 777 775 772 773 771 772 774 774 775 775 776 777 777 778 780 781 782 783 785 786 787 788 790 791 793 794 796 797 799 800 801 802 803 804 804 805 805 805 806 807 808 808 808 809 809 810 811 812 813 814 815 816 817 817 818 819 820 820 820 821 821 821 821 820 820 821 822 822 823
825 828 822 824 824 819 835 860 868 862 844 834 838 823 805 801 786 779 784 778 774 775 775 777 776 778 780 775 773 773 772 772 772 773 774 775 776 776 777 777 777 778 779 781 782 783 785 786 787 788 789 790 792 793 795 796 797 798 799 799 800 801 802 802 802 802 804 805 805 805 806 806 806 807 808 809 809 810 811 812 813 813 815 816 816 817 817 817 818 818 817 816 815 816 817 817 818
819 821 819 824 829 823 824 836 852 858 843 832 835 822 808 807 792 779 780 776 770 769 768 772 775 774 774 775 776 774 773 774 775 774 775 775 775 775 776 777 777 777 778 780 781 783 784 785 786 788 788 789 791 792 793 794 795 795 796 797 798 798 799 799 800 801 802 802 802 803 803 803 803 804 805 805 806 806 807 807 808 809 810 811 812 813 813 814 815 814 812 811 811 812 813 812 813
817 817 818 818 821 824 827 830 833 843 844 832 830 831 821 811 798 781 776 775 770 766 766 769 770 770 773 777 778 775 775 776 774 773 773 773 773 773 774 775 775 776 777 779 781 782 784 785 786 787 788 789 790 791 791 792 792 793 794 795 795 796 797 798 798 799 800 799 799 799 800 799 800 801 801 802 802 802 803 804 804 805 805 806 807 808 809 810 810 809 807 806 807 808 808 808 809
820 819 821 819 818 821 825 830 826 827 838 834 825 823 809 798 797 784 772 773 769 765 768 766 765 771 777 778 777 774 773 773 772 770 771 772 773 773 773 774 774 776 777 779 781 782 784 785 786 787 788 789 789 789 789 789 790 791 791 792 793 794 795 796 796 796 796 796 796 796 796 796 797 797 798 798 799 799 799 800 801 801 802 802 803 803 804 805 805 804 803 802 802 804 804 803 804
818 817 820 820 824 827 824 830 832 824 828 833 827 813 793 788 793 780 768 771 768 767 769 764 765 776 781 778 774 772 771 772 771 770 771 773 774 773 773 773 774 775 778 779 781 782 784 784 785 786 787 787 788 788 787 787 788 788 789 790 791 792 792 793 793 793 793 792 793 793 793 794 794 794 794 795 795 795 796 797 797 798 798 799 799 799 800 801 801 800 800 799 799 800 799 798 799
809 809 813 813 816 823 821 826 836 832 827 829 831 818 791 780 784 775 768 770 770 774 776 768 767 775 780 779 775 774 773 772 773 773 775 776 774 772 772 772 774 775 778 780 781 782 783 784 785 785 785 786 786 787 787 786 787 787 787 788 789 790 790 790 790 790 790 790 790 791 791 791 791 791 792 791 791 792 792 793 794 794 794 795 795 796 797 797 797 796 796 796 796 796 795 795 795